[[{"header":{"parameterUnit":"m.s-1","parameterCategory":2,"la1":30.2991,"la2":30.254,"lo1":-89.0895,"lo2":-89.0444,"dy":0.0017,"dx":0.0017,"nx":28,"ny":28,"refTime":"2023-09-25T09:00:00:Z","depth":"0","parameterNumber":2,"parameterNumberName":"U-component_of_CURRENTS"},"data":[0,0,0,0,0,0,0,0,0,0,0,0,0,0,0,0,0,0,0,0,0,0,0,0,0,0,0,0,0,0,0,0,0,0,0,0,0,0,0,0,0,0,0,0,0,0,0,0,0,0,0,0,0,0,0,0,0,0,-0.3296,-0.3296,0,-0.3287,-0.3287,-0.3287,-0.3252,-0.3251,-0.325,-0.3249,-0.3229,-0.3229,-0.3229,0,0,0,0,0,0,0,0,0,0,0,0,0,-0.3118,-0.3123,-0.3296,-0.3296,-0.3295,-0.3287,-0.3287,-0.3287,-0.3252,-0.3251,-0.325,-0.3249,-0.3229,-0.3229,-0.3229,0,0,0,0,0,0,0,0,0,0,0,0,0,-0.3162,-0.3124,-0.3296,-0.3276,-0.3274,-0.3287,-0.3287,-0.3287,-0.3252,-0.3251,-0.3249,-0.3248,-0.3228,-0.3229,-0.3229,-0.3258,0,0,-0.3231,-0.3231,0,0,0,0,0,0,0,0,-0.316,-0.3169,-0.3279,-0.3278,-0.3276,-0.3268,-0.3216,-0.3276,-0.3252,-0.3261,-0.3249,-0.3248,-0.3241,-0.3241,-0.3243,-0.3257,-0.3256,-0.3231,-0.3231,-0.3231,-0.3231,0,0,0,0,0,0,0,-0.3157,-0.3168,-0.3293,-0.3279,-0.3277,-0.3211,-0.3218,-0.3227,-0.3259,-0.3261,-0.3258,-0.3256,-0.324,-0.3243,-0.3242,-0.3256,-0.3231,-0.3231,-0.3231,-0.3231,-0.3326,-0.3329,0,0,0,0,0,0,-0.3168,-0.3167,-0.3293,-0.3293,-0.3212,-0.3217,-0.3224,-0.3273,-0.3259,-0.3256,-0.3257,-0.3254,-0.3243,-0.3242,-0.3241,-0.3337,-0.3231,-0.3231,-0.3232,-0.3324,-0.3327,-0.3329,0,0,0,0,0,0,-0.3165,-0.3182,-0.3294,-0.3224,-0.3234,-0.3222,-0.3276,-0.3273,-0.3265,-0.3257,-0.3253,-0.3251,-0.3242,-0.3241,-0.328,-0.3333,-0.3232,-0.3232,-0.3321,-0.3325,-0.3328,-0.3488,0,0,0,0,0,0,-0.3161,-0.3182,-0.321,-0.3228,-0.3239,-0.3291,-0.3278,-0.3274,-0.3266,-0.3262,-0.3251,-0.3248,-0.3241,-0.328,-0.3281,-0.3332,-0.3232,-0.3319,-0.3323,-0.3327,-0.348,-0.3497,-0.3511,0,0,0,0,0,-0.3156,-0.3194,-0.3213,-0.3226,-0.3284,-0.3291,-0.329,-0.3274,-0.3267,-0.3263,-0.3289,-0.3248,-0.3307,-0.3284,-0.3283,-0.3336,-0.3317,-0.3322,-0.3327,-0.3473,-0.3493,-0.351,0,0,0,0,0,0,-0.3129,-0.3195,-0.3215,-0.3274,-0.3279,-0.3284,-0.3287,-0.3275,-0.329,-0.3295,-0.3286,-0.3287,-0.3339,-0.3313,-0.3287,-0.3373,-0.3301,-0.3306,-0.3412,-0.3431,-0.3446,-0.3416,-0.3233,0,0,0,0,0,-0.3143,-0.3178,-0.3228,-0.3258,-0.3287,-0.329,-0.3288,-0.3278,-0.3295,-0.3298,-0.3295,-0.3312,-0.3362,-0.3375,-0.3388,-0.344,-0.3377,-0.3469,-0.3484,-0.3497,-0.3473,-0.3482,-0.3496,-0.3346,-0.3346,-0.3346,0,0,-0.3119,-0.317,-0.3179,-0.325,-0.327,-0.3301,-0.3286,-0.3292,-0.3315,-0.3297,-0.3333,-0.3359,-0.3386,-0.3456,-0.3474,-0.344,-0.3501,-0.3504,-0.3516,-0.3483,-0.3489,-0.3504,-0.3517,-0.335,-0.3349,-0.3349,0,0,-0.3088,-0.3172,-0.3192,-0.3232,-0.3271,-0.3287,-0.3291,-0.3312,-0.3334,-0.3374,-0.3395,-0.346,-0.3481,-0.3544,-0.3578,-0.3681,-0.3581,-0.3671,-0.3733,-0.3746,-0.3758,-0.3768,-0.3678,-0.3679,-0.3683,-0.3684,-0.3684,0,-0.3084,-0.3137,-0.3184,-0.3237,-0.3283,-0.3289,-0.3333,-0.3357,-0.3371,-0.3421,-0.3393,-0.3503,-0.3534,-0.3666,-0.3715,-0.3719,-0.3657,-0.3672,-0.3767,-0.3775,-0.3782,-0.3688,-0.3687,-0.3692,-0.3691,-0.369,-0.3689,0,-0.3046,-0.3134,-0.3161,-0.3248,-0.3285,-0.3327,-0.3393,-0.3424,-0.3451,-0.3478,-0.3583,-0.3637,-0.3693,-0.3742,-0.3768,-0.3862,-0.3774,-0.3786,-0.3721,-0.3807,-0.3701,-0.3697,-0.3704,-0.3701,-0.3698,-0.3696,0,0,-0.2995,-0.3121,-0.3143,-0.322,-0.3323,-0.3355,-0.3436,-0.3529,-0.3573,-0.3617,-0.3678,-0.3828,-0.3828,-0.3864,-0.3908,-0.3943,-0.3968,-0.3886,-0.3883,-0.3794,-0.3902,-0.3631,-0.3599,-0.3993,-0.3994,-0.3995,-0.3796,0,-0.2988,-0.3093,-0.3152,-0.326,-0.3351,-0.3437,-0.3501,-0.3577,-0.3632,-0.3675,-0.3783,-0.3836,-0.3885,-0.391,-0.3967,-0.3956,-0.3966,-0.4013,-0.3829,-0.3821,-0.3572,-0.359,-0.3427,-0.3218,-0.3791,-0.379,-0.3789,0,-0.2956,-0.3057,-0.3164,-0.3342,-0.3388,-0.3421,-0.3563,-0.3618,-0.371,-0.3749,-0.383,-0.3854,-0.3942,-0.3943,-0.3965,-0.398,-0.3946,-0.3931,-0.3923,-0.3603,-0.3543,-0.3229,-0.3187,-0.3188,-0.3781,-0.3782,-0.3782,0,-0.291,-0.3085,-0.3178,-0.3241,-0.3403,-0.3466,-0.3531,-0.3634,-0.3672,-0.3766,-0.3744,-0.3867,-0.3839,-0.3885,-0.384,-0.3904,-0.3774,-0.3864,-0.3584,-0.3561,-0.3344,-0.3299,-0.3275,-0.3862,-0.3863,-0.3863,-0.3864,0,-0.2915,-0.3003,-0.316,-0.3225,-0.3307,-0.344,-0.3495,-0.3578,-0.3634,-0.3616,-0.3747,-0.3693,-0.3817,-0.3754,-0.3785,-0.3596,-0.3724,-0.355,-0.3497,-0.3387,-0.3351,-0.3275,-0.333,-0.3856,-0.3857,-0.3859,-0.386,0,-0.2831,-0.2948,-0.3064,-0.3243,-0.3284,-0.333,-0.3417,-0.3428,-0.3511,-0.3467,-0.3476,-0.3518,-0.3417,-0.3459,-0.3448,-0.3427,-0.3265,-0.3265,-0.3059,-0.2984,-0.2733,-0.2801,-0.2606,-0.2544,-0.2941,-0.2933,-0.2927,0,-0.2781,-0.2836,-0.3015,-0.3039,-0.3107,-0.3186,-0.3195,-0.333,-0.3321,-0.3318,-0.3252,-0.3167,-0.3044,-0.2882,-0.2844,-0.2762,-0.2891,-0.2572,-0.2702,-0.2641,-0.2684,-0.275,-0.2724,-0.248,-0.247,-0.2462,-0.2456,0,-0.2671,-0.2728,-0.2809,-0.2859,-0.289,-0.2921,-0.296,-0.2931,-0.3022,-0.2972,-0.2822,-0.2729,-0.255,-0.2361,-0.2247,-0.223,-0.2483,-0.2397,-0.2447,-0.2373,-0.2338,-0.2275,-0.2637,-0.2385,-0.2392,-0.2397,-0.2401,-0.2404,-0.2514,-0.2524,-0.2594,-0.2612,-0.2644,-0.2585,-0.2523,-0.2551,-0.2469,-0.2343,-0.2374,-0.2179,-0.2077,-0.1869,-0.1822,-0.1705,-0.1881,-0.1752,-0.1848,-0.1925,-0.1842,-0.1956,-0.1581,-0.1584,-0.1586,-0.1587,-0.1589,0,-0.225,-0.2278,-0.2318,-0.2312,-0.2233,-0.2338,-0.2285,-0.2176,-0.1991,-0.1956,-0.1804,-0.1631,-0.1447,-0.1442,-0.132,-0.1252,-0.1332,-0.1267,-0.1435,-0.1448,-0.1627,-0.1585,-0.1058,-0.1058,-0.1058,-0.1058,-0.1058,-0.1058,-0.2092,-0.2022,-0.2061,-0.1868,-0.1864,-0.169,-0.1608,-0.1507,-0.1455,-0.1241,-0.117,-0.1144,-0.1189,-0.1239,-0.1152,-0.1102,-0.1193,-0.1059,-0.1183,-0.1441,-0.15,-0.1557,-0.1533,-0.1003,-0.1003,-0.0956,-0.0955,-0.0955]},{"header":{"parameterUnit":"m.s-1","parameterCategory":2,"la1":30.2991,"la2":30.254,"lo1":-89.0895,"lo2":-89.0444,"dy":0.0017,"dx":0.0017,"nx":28,"ny":28,"refTime":"2023-09-25T09:00:00:Z","depth":"0","parameterNumber":3,"parameterNumberName":"V-component_of_CURRENTS"},"data":[0,0,0,0,0,0,0,0,0,0,0,0,0,0,0,0,0,0,0,0,0,0,0,0,0,0,0,0,0,0,0,0,0,0,0,0,0,0,0,0,0,0,0,0,0,0,0,0,0,0,0,0,0,0,0,0,0,0,-0.05,-0.0498,0,-0.0339,-0.0337,-0.0336,-0.0279,-0.0279,-0.0279,-0.0279,-0.0125,-0.0121,-0.0116,0,0,0,0,0,0,0,0,0,0,0,0,0,-0.0615,-0.0615,-0.0501,-0.0498,-0.0496,-0.0339,-0.0337,-0.0335,-0.0279,-0.0279,-0.0279,-0.0279,-0.0126,-0.0121,-0.0116,0,0,0,0,0,0,0,0,0,0,0,0,0,-0.0525,-0.0615,-0.0501,-0.0446,-0.0439,-0.0339,-0.0337,-0.0335,-0.0278,-0.0279,-0.0279,-0.0279,-0.0128,-0.0122,-0.0115,-0.0068,0,0,-0.0096,-0.0093,0,0,0,0,0,0,0,0,-0.053,-0.0522,-0.0456,-0.0449,-0.0441,-0.0325,-0.032,-0.0245,-0.0278,-0.0344,-0.0279,-0.028,-0.019,-0.0178,-0.0153,-0.0061,-0.0055,-0.0095,-0.0091,-0.0088,-0.0086,0,0,0,0,0,0,0,-0.0537,-0.0527,-0.0441,-0.0453,-0.0444,-0.0378,-0.0368,-0.0305,-0.027,-0.0338,-0.0332,-0.0308,-0.0186,-0.0159,-0.0149,-0.0052,-0.0095,-0.0089,-0.0085,-0.0083,0.0093,0.0094,0,0,0,0,0,0,-0.0556,-0.0534,-0.0446,-0.0435,-0.0483,-0.0377,-0.0365,-0.0366,-0.027,-0.0255,-0.0308,-0.0306,-0.017,-0.0156,-0.0143,-0.0092,-0.0088,-0.0082,-0.0078,0.0092,0.0093,0.0094,0,0,0,0,0,0,-0.0559,-0.0551,-0.0452,-0.0476,-0.0458,-0.0375,-0.0376,-0.0362,-0.0332,-0.0246,-0.0232,-0.0291,-0.017,-0.0152,-0.0092,-0.0085,-0.0079,-0.0073,0.0092,0.0093,0.0094,0.0017,0,0,0,0,0,0,-0.0564,-0.0554,-0.056,-0.0478,-0.0458,-0.0399,-0.0374,-0.0359,-0.0314,-0.031,-0.0227,-0.0213,-0.0169,-0.0102,-0.0085,-0.0076,-0.0068,0.0091,0.0092,0.0093,0.0019,0.0016,0.0013,0,0,0,0,0,-0.0569,-0.0568,-0.0562,-0.055,-0.047,-0.0398,-0.0382,-0.0325,-0.0314,-0.0301,-0.0248,-0.0216,-0.0081,-0.0096,-0.0077,-0.0066,0.009,0.0092,0.0093,0.002,0.0016,0.0013,0,0,0,0,0,0,-0.0615,-0.0559,-0.0551,-0.0534,-0.0477,-0.0388,-0.0364,-0.0326,-0.0273,-0.0271,-0.0204,-0.0186,-0.0133,-0.0083,-0.0102,-0.0008,0.001,0.0016,-0.0052,-0.0055,-0.0058,-0.0082,-0.0063,0,0,0,0,0,-0.0632,-0.062,-0.0555,-0.0539,-0.052,-0.0447,-0.041,-0.037,-0.0308,-0.0285,-0.0228,-0.0165,-0.0108,-0.0072,-0.0016,0.0041,0.0074,0.0062,0.0059,0.0056,0.0051,0.0097,0.0096,0.01,0.01,0.01,0,0,-0.064,-0.0608,-0.06,-0.0548,-0.0505,-0.0478,-0.0427,-0.0374,-0.0346,-0.0275,-0.0231,-0.0175,-0.0097,-0.0043,-0.0014,-0.0001,0.0075,0.0058,0.0055,0.0051,0.0098,0.0098,0.0097,0.0101,0.0101,0.0101,0,0,-0.0646,-0.0635,-0.063,-0.0595,-0.0532,-0.0489,-0.0479,-0.04,-0.0366,-0.0308,-0.0257,-0.02,-0.0107,-0.0054,-0.0014,0.0007,0.0052,0.0029,0.0002,0.0047,0.0046,0.0046,0.0086,0.009,0.0034,0.0034,0.0034,0,-0.0669,-0.0661,-0.0612,-0.06,-0.0581,-0.0505,-0.05,-0.0444,-0.0353,-0.0329,-0.0307,-0.0179,-0.0113,-0.0048,-0.004,-0.0001,0.0027,0.0003,0.0039,0.004,0.0041,0.0083,0.0088,0.003,0.0031,0.0031,0.0031,0,-0.0663,-0.0672,-0.0665,-0.0644,-0.061,-0.059,-0.0521,-0.0484,-0.0439,-0.0382,-0.0312,-0.0222,-0.015,-0.0113,-0.0067,-0.002,-0.0001,0.002,0.0037,0.0035,0.0081,0.0088,0.0025,0.0027,0.0028,0.0029,0,0,-0.0697,-0.0677,-0.0678,-0.0699,-0.0643,-0.062,-0.058,-0.0527,-0.0507,-0.0415,-0.0386,-0.0273,-0.0226,-0.0177,-0.0107,-0.0056,-0.0016,-0.0018,-0.0014,0.0003,0.0076,0.0118,0.013,0.0004,0.0005,0.0006,0.0103,0,-0.0725,-0.075,-0.071,-0.0733,-0.0755,-0.0689,-0.0662,-0.0597,-0.0534,-0.0483,-0.0378,-0.0321,-0.0248,-0.0217,-0.0154,-0.0051,-0.0001,-0.0045,0.0093,0.0097,0.0119,0.0139,0.0169,0.026,0.011,0.0111,0.0112,0,-0.074,-0.0767,-0.0809,-0.0822,-0.0822,-0.0807,-0.0775,-0.0736,-0.0636,-0.0585,-0.0504,-0.042,-0.0317,-0.0267,-0.0098,-0.0132,-0.0039,0.0042,0.0047,0.0117,0.0152,0.0242,0.0279,0.0404,0.0123,0.0122,0.0121,0,-0.0818,-0.0836,-0.0887,-0.089,-0.0879,-0.0876,-0.0855,-0.0773,-0.0745,-0.0654,-0.0623,-0.0491,-0.0423,-0.0292,-0.0107,-0.0109,0.007,0.0088,0.0214,0.0218,0.0287,0.0296,0.0447,0.019,0.019,0.0189,0.0189,0,-0.0883,-0.0922,-0.0932,-0.0968,-0.1011,-0.0962,-0.0968,-0.0922,-0.0849,-0.0807,-0.0689,-0.0621,-0.0427,-0.0289,-0.0137,0.0069,0.0051,0.0213,0.0249,0.0263,0.0268,0.0417,0.0453,0.0193,0.0192,0.0191,0.0191,0,-0.0958,-0.0967,-0.1034,-0.1053,-0.1056,-0.1085,-0.1054,-0.1039,-0.0971,-0.0915,-0.089,-0.0719,-0.0525,-0.0326,-0.0096,0.0035,0.0301,0.0291,0.0295,0.033,0.0557,0.0587,0.075,0.0825,0.044,0.0442,0.0443,0,-0.0995,-0.1044,-0.111,-0.1142,-0.1152,-0.1175,-0.1169,-0.111,-0.1077,-0.0952,-0.0921,-0.074,-0.0558,-0.0218,0.0036,0.0301,0.0388,0.0459,0.0467,0.0582,0.0642,0.065,0.0702,0.0531,0.0533,0.0535,0.0536,0,-0.1068,-0.1094,-0.1152,-0.1222,-0.1243,-0.1263,-0.1247,-0.1238,-0.1136,-0.1066,-0.0906,-0.0758,-0.0424,-0.0088,0.0225,0.0375,0.0542,0.0501,0.0626,0.0733,0.0746,0.0831,0.0449,0.0551,0.055,0.0549,0.0548,0.0547,-0.1096,-0.1157,-0.1216,-0.127,-0.1301,-0.1295,-0.1273,-0.1218,-0.1143,-0.0954,-0.0871,-0.057,-0.0187,0.0282,0.0443,0.0752,0.0702,0.0842,0.0871,0.0871,0.0941,0.0587,0.0723,0.0723,0.0722,0.0722,0.0722,0,-0.1092,-0.1158,-0.1238,-0.128,-0.1288,-0.1301,-0.1266,-0.1185,-0.1046,-0.0855,-0.066,-0.0169,0.0217,0.0563,0.0964,0.1121,0.1144,0.1178,0.1204,0.1242,0.0949,0.0952,0.1135,0.1135,0.1135,0.1135,0.1135,0.1135,-0.1085,-0.115,-0.12,-0.1216,-0.1239,-0.1193,-0.1151,-0.1031,-0.0869,-0.0493,-0.0161,0.0088,0.0511,0.1056,0.141,0.1434,0.1564,0.1528,0.1604,0.1407,0.1377,0.135,0.1364,0.163,0.1631,0.1892,0.1894,0.1896]}],[{"header":{"parameterUnit":"m.s-1","parameterCategory":2,"la1":30.2991,"la2":30.254,"lo1":-89.0895,"lo2":-89.0444,"dy":0.0017,"dx":0.0017,"nx":28,"ny":28,"refTime":"2023-09-25T09:00:00:Z","depth":"2","parameterNumber":2,"parameterNumberName":"U-component_of_CURRENTS"},"data":[0,0,0,0,0,0,0,0,0,0,0,0,0,0,0,0,0,0,0,0,0,0,0,0,0,0,0,0,0,0,0,0,0,0,0,0,0,0,0,0,0,0,0,0,0,0,0,0,0,0,0,0,0,0,0,0,0,0,-0.2024,-0.2024,0,-0.2046,-0.2046,-0.2047,-0.198,-0.1978,-0.1975,-0.1973,-0.1865,-0.1864,-0.1864,0,0,0,0,0,0,0,0,0,0,0,0,0,-0.2062,-0.2061,-0.2024,-0.2024,-0.2023,-0.2046,-0.2046,-0.2047,-0.1981,-0.1978,-0.1975,-0.1972,-0.1865,-0.1864,-0.1863,0,0,0,0,0,0,0,0,0,0,0,0,0,-0.2064,-0.206,-0.2024,-0.199,-0.1987,-0.2046,-0.2047,-0.2047,-0.1981,-0.1978,-0.1974,-0.1971,-0.1865,-0.1864,-0.1863,-0.193,0,0,-0.186,-0.186,0,0,0,0,0,0,0,0,-0.2064,-0.2063,-0.1995,-0.1992,-0.1989,-0.2003,-0.202,-0.2,-0.1982,-0.1988,-0.1973,-0.1969,-0.1899,-0.1895,-0.1915,-0.1925,-0.1921,-0.186,-0.186,-0.1859,-0.1859,0,0,0,0,0,0,0,-0.2064,-0.2063,-0.2037,-0.1995,-0.1991,-0.2021,-0.2016,-0.2018,-0.1964,-0.1987,-0.1981,-0.1978,-0.1896,-0.1916,-0.1911,-0.1919,-0.186,-0.186,-0.1859,-0.1859,-0.1811,-0.1811,0,0,0,0,0,0,-0.2049,-0.2062,-0.2036,-0.2037,-0.2014,-0.2022,-0.2017,-0.2005,-0.1967,-0.1957,-0.1981,-0.1975,-0.192,-0.1913,-0.1907,-0.1928,-0.1859,-0.1859,-0.1858,-0.1812,-0.1811,-0.181,0,0,0,0,0,0,-0.205,-0.2047,-0.2035,-0.2047,-0.2047,-0.2024,-0.2012,-0.2008,-0.2027,-0.1963,-0.1951,-0.2004,-0.1917,-0.1908,-0.1833,-0.1924,-0.1858,-0.1857,-0.1813,-0.1812,-0.1811,-0.2004,0,0,0,0,0,0,-0.2051,-0.2047,-0.2003,-0.2046,-0.2045,-0.2051,-0.2015,-0.2011,-0.2029,-0.2021,-0.1979,-0.1965,-0.1913,-0.1835,-0.1832,-0.1921,-0.1857,-0.1814,-0.1812,-0.1811,-0.1998,-0.2009,-0.2019,0,0,0,0,0,-0.2052,-0.2045,-0.2001,-0.1996,-0.1996,-0.2051,-0.2055,-0.203,-0.2034,-0.2038,-0.1963,-0.1966,-0.1826,-0.1832,-0.183,-0.1922,-0.1814,-0.1813,-0.1811,-0.1993,-0.2007,-0.2018,0,0,0,0,0,0,-0.2036,-0.2038,-0.1991,-0.1976,-0.1989,-0.2037,-0.2026,-0.2055,-0.2018,-0.197,-0.1948,-0.1927,-0.1902,-0.1859,-0.1868,-0.189,-0.1829,-0.1826,-0.1968,-0.198,-0.199,-0.2026,-0.1856,0,0,0,0,0,-0.201,-0.2011,-0.2009,-0.2001,-0.1989,-0.2017,-0.2028,-0.2016,-0.2005,-0.1989,-0.1989,-0.1938,-0.1904,-0.1891,-0.184,-0.1864,-0.1843,-0.1915,-0.1926,-0.1936,-0.1954,-0.2057,-0.2083,-0.1805,-0.1805,-0.1805,0,0,-0.201,-0.2005,-0.2004,-0.1997,-0.1993,-0.2016,-0.2015,-0.2021,-0.2063,-0.198,-0.202,-0.1972,-0.1905,-0.1902,-0.1895,-0.1879,-0.1972,-0.1934,-0.1944,-0.1957,-0.2059,-0.2087,-0.2112,-0.1804,-0.1804,-0.1804,0,0,-0.2033,-0.1989,-0.1983,-0.1996,-0.1972,-0.2,-0.2014,-0.2056,-0.2069,-0.2088,-0.2033,-0.2021,-0.201,-0.1989,-0.1973,-0.2013,-0.2014,-0.2013,-0.2129,-0.223,-0.2257,-0.228,-0.2183,-0.2196,-0.2037,-0.2038,-0.2038,0,-0.1999,-0.2011,-0.1996,-0.1996,-0.2015,-0.201,-0.2031,-0.2066,-0.2095,-0.2123,-0.2091,-0.2107,-0.2062,-0.2092,-0.2096,-0.2055,-0.2045,-0.2106,-0.2257,-0.228,-0.2301,-0.2196,-0.2209,-0.2047,-0.2046,-0.2045,-0.2044,0,-0.2022,-0.2023,-0.2034,-0.2033,-0.2052,-0.2076,-0.2101,-0.2139,-0.2177,-0.2226,-0.2266,-0.2214,-0.2222,-0.2239,-0.2186,-0.2315,-0.2228,-0.2259,-0.2255,-0.2343,-0.2221,-0.2232,-0.206,-0.2057,-0.2054,-0.2052,0,0,-0.1974,-0.2031,-0.203,-0.2034,-0.2071,-0.209,-0.2162,-0.2231,-0.229,-0.2335,-0.243,-0.2428,-0.2425,-0.2402,-0.237,-0.2479,-0.2585,-0.2455,-0.2456,-0.2404,-0.269,-0.2464,-0.2451,-0.2693,-0.2698,-0.2702,-0.2508,0,-0.1982,-0.2015,-0.2054,-0.2106,-0.2123,-0.216,-0.226,-0.2311,-0.2362,-0.2447,-0.2459,-0.2499,-0.2482,-0.2482,-0.2595,-0.2571,-0.2638,-0.2625,-0.2568,-0.2561,-0.2399,-0.2468,-0.2325,-0.2132,-0.2518,-0.2519,-0.2521,0,-0.1973,-0.2009,-0.206,-0.2156,-0.2161,-0.2217,-0.2321,-0.2387,-0.2495,-0.2533,-0.2592,-0.2593,-0.266,-0.2671,-0.2736,-0.2739,-0.2733,-0.2741,-0.2735,-0.2482,-0.2363,-0.2121,-0.2135,-0.2537,-0.2535,-0.2534,-0.2533,0,-0.1944,-0.2012,-0.2062,-0.2087,-0.2194,-0.2244,-0.2311,-0.2426,-0.2468,-0.2573,-0.2596,-0.2689,-0.2678,-0.2781,-0.2725,-0.2774,-0.2784,-0.2834,-0.2605,-0.2579,-0.2416,-0.2369,-0.2947,-0.2947,-0.2947,-0.2948,-0.2949,0,-0.1947,-0.1979,-0.2054,-0.2078,-0.2149,-0.2228,-0.2308,-0.2392,-0.2492,-0.2516,-0.262,-0.2614,-0.2744,-0.2727,-0.2742,-0.2628,-0.2774,-0.2616,-0.2564,-0.2453,-0.2415,-0.2757,-0.2738,-0.294,-0.2942,-0.2944,-0.2945,0,-0.1898,-0.1961,-0.2005,-0.2109,-0.2134,-0.2174,-0.2266,-0.2309,-0.2432,-0.2451,-0.2477,-0.2554,-0.2516,-0.2541,-0.2604,-0.2563,-0.2537,-0.2469,-0.221,-0.2134,-0.2245,-0.2237,-0.2215,-0.2206,-0.2199,-0.2193,-0.2188,0,-0.1883,-0.1904,-0.1972,-0.1986,-0.2031,-0.2093,-0.2132,-0.2259,-0.2284,-0.2368,-0.2352,-0.2349,-0.2278,-0.2194,-0.2172,-0.2088,-0.2264,-0.1903,-0.2015,-0.2244,-0.2195,-0.2198,-0.2199,-0.1808,-0.18,-0.1794,-0.1789,0,-0.1837,-0.1855,-0.1872,-0.19,-0.1927,-0.1945,-0.2008,-0.2019,-0.213,-0.2143,-0.2114,-0.2074,-0.1973,-0.1819,-0.1707,-0.1678,-0.1914,-0.1764,-0.2152,-0.2011,-0.1846,-0.1802,-0.182,-0.1732,-0.1738,-0.1742,-0.1745,-0.1747,-0.1774,-0.1764,-0.1775,-0.1781,-0.1801,-0.179,-0.1758,-0.181,-0.1801,-0.1791,-0.1821,-0.1701,-0.1685,-0.1425,-0.134,-0.1303,-0.1462,-0.1464,-0.1492,-0.1525,-0.151,-0.1343,-0.1118,-0.112,-0.1122,-0.1123,-0.1124,0,-0.1677,-0.166,-0.1656,-0.1649,-0.1596,-0.1655,-0.1647,-0.1581,-0.1504,-0.1505,-0.1444,-0.1235,-0.1107,-0.1105,-0.0957,-0.0923,-0.1022,-0.0897,-0.1058,-0.111,-0.1158,-0.1135,-0.0638,-0.0636,-0.0635,-0.0634,0,0,-0.1621,-0.1559,-0.1541,-0.1427,-0.1415,-0.1292,-0.1248,-0.1183,-0.115,-0.1031,-0.0967,-0.102,-0.1034,-0.0825,-0.0781,-0.068,-0.0899,-0.0647,-0.1032,-0.1271,-0.1317,-0.1467,-0.1485,0,0,0,0,0]},{"header":{"parameterUnit":"m.s-1","parameterCategory":2,"la1":30.2991,"la2":30.254,"lo1":-89.0895,"lo2":-89.0444,"dy":0.0017,"dx":0.0017,"nx":28,"ny":28,"refTime":"2023-09-25T09:00:00:Z","depth":"2","parameterNumber":3,"parameterNumberName":"V-component_of_CURRENTS"},"data":[0,0,0,0,0,0,0,0,0,0,0,0,0,0,0,0,0,0,0,0,0,0,0,0,0,0,0,0,0,0,0,0,0,0,0,0,0,0,0,0,0,0,0,0,0,0,0,0,0,0,0,0,0,0,0,0,0,0,-0.0153,-0.0151,0,-0.0013,-0.0012,-0.001,0.0124,0.0126,0.0128,0.0129,0.0408,0.0414,0.0419,0,0,0,0,0,0,0,0,0,0,0,0,0,-0.0306,-0.0304,-0.0153,-0.0151,-0.015,-0.0013,-0.0011,-0.001,0.0124,0.0126,0.0128,0.013,0.0406,0.0413,0.042,0,0,0,0,0,0,0,0,0,0,0,0,0,-0.0211,-0.0303,-0.0153,-0.0066,-0.0057,-0.0014,-0.0011,-0.0009,0.0124,0.0126,0.0129,0.0131,0.0404,0.0412,0.0421,0.0422,0,0,0.0447,0.0451,0,0,0,0,0,0,0,0,-0.0216,-0.0205,-0.0081,-0.0072,-0.0062,0.0041,0.0037,0.0142,0.0123,0.0054,0.0129,0.0133,0.0297,0.0314,0.0332,0.0435,0.0447,0.0448,0.0453,0.0457,0.046,0,0,0,0,0,0,0,-0.0223,-0.021,-0.0098,-0.0079,-0.0067,-0.0034,-0.0018,0.0057,0.0161,0.0061,0.0071,0.0086,0.0303,0.0323,0.034,0.0451,0.0448,0.0456,0.0461,0.0464,0.0615,0.0614,0,0,0,0,0,0,-0.0242,-0.0217,-0.0103,-0.0094,-0.0133,-0.0034,-0.0015,0.0005,0.0158,0.0183,0.0084,0.0092,0.0307,0.033,0.0351,0.0406,0.0457,0.0465,0.047,0.0616,0.0615,0.0613,0,0,0,0,0,0,-0.0246,-0.0233,-0.0108,-0.0152,-0.0134,-0.0034,-0.0012,0.0007,0.0038,0.0174,0.0202,0.0098,0.031,0.0338,0.0422,0.0417,0.0469,0.0477,0.0618,0.0616,0.0614,0.0489,0,0,0,0,0,0,-0.0251,-0.0235,-0.0225,-0.0153,-0.0132,-0.0074,-0.0014,0.0007,0.0043,0.0055,0.0195,0.0223,0.0314,0.0408,0.0431,0.043,0.0484,0.0619,0.0617,0.0615,0.0494,0.0483,0.0473,0,0,0,0,0,-0.0257,-0.0249,-0.0226,-0.0211,-0.0122,-0.0074,-0.006,0.0019,0.0041,0.0055,0.0142,0.0219,0.041,0.0414,0.0441,0.0442,0.062,0.0617,0.0615,0.0499,0.0485,0.0473,0,0,0,0,0,0,-0.03,-0.0232,-0.0205,-0.0174,-0.0127,-0.0051,-0.0029,0.0004,0.0077,0.0096,0.021,0.0244,0.0316,0.0384,0.0386,0.0475,0.0525,0.0527,0.0427,0.0415,0.0405,0.0391,0.0491,0,0,0,0,0,-0.0313,-0.0295,-0.0225,-0.0205,-0.0181,-0.0117,-0.0089,-0.0042,0.0029,0.0064,0.0143,0.0234,0.0318,0.0372,0.0453,0.0501,0.0554,0.0515,0.0504,0.0495,0.0498,0.0579,0.0576,0.0604,0.0605,0.0605,0,0,-0.0329,-0.0289,-0.0278,-0.0216,-0.0172,-0.0154,-0.0092,-0.0053,-0.0038,0.0082,0.0122,0.0203,0.0321,0.0382,0.0419,0.0445,0.0502,0.0491,0.0483,0.0492,0.0576,0.0574,0.0572,0.0603,0.0603,0.0603,0,0,-0.0354,-0.0314,-0.0305,-0.0276,-0.0216,-0.0181,-0.0178,-0.0114,-0.0075,-0.0033,0.0056,0.0129,0.0236,0.0323,0.0382,0.0357,0.0442,0.0373,0.0317,0.0394,0.0393,0.0393,0.0401,0.0403,0.037,0.0369,0.0369,0,-0.037,-0.0356,-0.0297,-0.0285,-0.0273,-0.0204,-0.0204,-0.0161,-0.0086,-0.0059,-0.003,0.0118,0.0213,0.0305,0.0295,0.0337,0.0369,0.0358,0.0381,0.0382,0.0385,0.0394,0.0398,0.0363,0.0364,0.0364,0.0365,0,-0.039,-0.0383,-0.0379,-0.0349,-0.0327,-0.0319,-0.0259,-0.0236,-0.0202,-0.0155,-0.0075,0.0039,0.0133,0.0162,0.0228,0.0283,0.0293,0.0356,0.0413,0.0374,0.0386,0.0392,0.0354,0.0356,0.0358,0.036,0,0,-0.041,-0.0398,-0.0395,-0.0405,-0.0366,-0.035,-0.0333,-0.0289,-0.0271,-0.0202,-0.0173,-0.0045,0.001,0.0079,0.0165,0.0228,0.0249,0.0283,0.029,0.0287,0.0366,0.0379,0.0388,0.0318,0.032,0.0321,0.0347,0,-0.0443,-0.0465,-0.044,-0.0468,-0.048,-0.0428,-0.0423,-0.0373,-0.0319,-0.0276,-0.0156,-0.0088,-0.0018,0.0026,0.0098,0.0227,0.0268,0.0233,0.0408,0.0412,0.0429,0.0398,0.0381,0.0406,0.0354,0.0355,0.0356,0,-0.0466,-0.0485,-0.0527,-0.0542,-0.0537,-0.0544,-0.0519,-0.0498,-0.0411,-0.0364,-0.0277,-0.0185,-0.0082,-0.0017,0.016,0.0132,0.0229,0.0318,0.0323,0.0394,0.044,0.0449,0.042,0.0367,0.0366,0.0366,0.0365,0,-0.0526,-0.0541,-0.0589,-0.0595,-0.0597,-0.0601,-0.0595,-0.0531,-0.0505,-0.0418,-0.0384,-0.0252,-0.0175,-0.0032,0.0148,0.0153,0.0337,0.0375,0.0468,0.0467,0.0519,0.0521,0.0494,0.0494,0.0494,0.0493,0.0493,0,-0.0582,-0.0613,-0.0624,-0.0655,-0.0697,-0.0668,-0.0679,-0.0645,-0.0585,-0.0546,-0.0435,-0.0364,-0.0167,-0.003,0.0116,0.0303,0.0315,0.0449,0.0489,0.0467,0.0464,0.0504,0.0505,0.0494,0.0494,0.0494,0.0494,0,-0.0639,-0.0651,-0.0705,-0.0729,-0.0734,-0.0763,-0.0749,-0.0736,-0.0681,-0.0626,-0.0603,-0.0448,-0.0272,-0.0085,0.0151,0.0266,0.0443,0.0509,0.0431,0.0463,0.0511,0.0504,0.0583,0.0584,0.0585,0.0586,0.0586,0,-0.0672,-0.0712,-0.0765,-0.0794,-0.0809,-0.0834,-0.0837,-0.0794,-0.0765,-0.0657,-0.0625,-0.0466,-0.0311,-0.0005,0.0221,0.0443,0.0474,0.0543,0.0568,0.0495,0.0527,0.0519,0.0512,0.0555,0.0556,0.0556,0.0556,0,-0.0738,-0.0757,-0.0798,-0.0867,-0.0892,-0.0908,-0.0906,-0.09,-0.0823,-0.0751,-0.0618,-0.0496,-0.0215,0.0047,0.0312,0.0443,0.0501,0.0555,0.0539,0.0539,0.0474,0.0503,0.0496,0.0558,0.0558,0.0558,0.0558,0.0558,-0.0772,-0.0817,-0.0871,-0.0923,-0.0951,-0.0964,-0.096,-0.0913,-0.0855,-0.0708,-0.0609,-0.0372,-0.0173,0.024,0.0402,0.0546,0.0555,0.0606,0.0603,0.0601,0.0598,0.0539,0.063,0.063,0.063,0.063,0.063,0,-0.0815,-0.0858,-0.0916,-0.0973,-0.0992,-0.0997,-0.0978,-0.0928,-0.0829,-0.0654,-0.0488,-0.022,0.0051,0.0258,0.0499,0.0625,0.0607,0.063,0.0595,0.0593,0.0591,0.0585,0.0615,0.0615,0.0615,0.0615,0,0,-0.084,-0.0903,-0.093,-0.0981,-0.1007,-0.0997,-0.0974,-0.0879,-0.0742,-0.054,-0.0338,-0.012,0.0116,0.0282,0.0421,0.0537,0.0527,0.0533,0.0535,0.0475,0.0471,0.0569,0.0557,0,0,0,0,0]}],[{"header":{"parameterUnit":"m.s-1","parameterCategory":2,"la1":30.2991,"la2":30.254,"lo1":-89.0895,"lo2":-89.0444,"dy":0.0017,"dx":0.0017,"nx":28,"ny":28,"refTime":"2023-09-25T09:00:00:Z","depth":"4","parameterNumber":2,"parameterNumberName":"U-component_of_CURRENTS"},"data":[0,0,0,0,0,0,0,0,0,0,0,0,0,0,0,0,0,0,0,0,0,0,0,0,0,0,0,0,0,0,0,0,0,0,0,0,0,0,0,0,0,0,0,0,0,0,0,0,0,0,0,0,0,0,0,0,0,0,-0.0912,-0.0912,0,-0.0905,-0.0905,-0.0905,-0.0903,-0.0903,-0.0903,-0.0903,-0.0934,-0.0935,-0.0936,0,0,0,0,0,0,0,0,0,0,0,0,0,-0.0999,-0.0997,-0.0912,-0.0912,-0.0912,-0.0905,-0.0905,-0.0905,-0.0903,-0.0903,-0.0903,-0.0903,-0.0934,-0.0935,-0.0936,0,0,0,0,0,0,0,0,0,0,0,0,0,-0.0975,-0.0996,-0.0912,-0.0908,-0.0908,-0.0905,-0.0905,-0.0905,-0.0903,-0.0903,-0.0903,-0.0903,-0.0934,-0.0935,-0.0936,-0.0949,0,0,-0.0941,-0.0941,0,0,0,0,0,0,0,0,-0.0976,-0.0972,-0.0909,-0.0909,-0.0908,-0.0903,-0.0947,-0.0921,-0.0903,-0.0907,-0.0903,-0.0902,-0.0926,-0.0928,-0.093,-0.0951,-0.0952,-0.0941,-0.0942,-0.0942,-0.0943,0,0,0,0,0,0,0,-0.0978,-0.0973,-0.0911,-0.0909,-0.0908,-0.0932,-0.0928,-0.0942,-0.092,-0.0907,-0.0906,-0.0902,-0.0926,-0.0928,-0.093,-0.0953,-0.0941,-0.0942,-0.0943,-0.0944,-0.1023,-0.1024,0,0,0,0,0,0,-0.097,-0.0974,-0.0912,-0.0911,-0.094,-0.093,-0.0926,-0.0906,-0.0919,-0.092,-0.0902,-0.0902,-0.0926,-0.0929,-0.0932,-0.1001,-0.0942,-0.0944,-0.0945,-0.1021,-0.1023,-0.1024,0,0,0,0,0,0,-0.0972,-0.0964,-0.0912,-0.0942,-0.0936,-0.0928,-0.0907,-0.0906,-0.093,-0.0915,-0.0917,-0.0929,-0.0926,-0.093,-0.0959,-0.1,-0.0944,-0.0946,-0.102,-0.1022,-0.1023,-0.1105,0,0,0,0,0,0,-0.0974,-0.0965,-0.0956,-0.094,-0.0934,-0.0939,-0.0907,-0.0906,-0.0925,-0.0926,-0.0938,-0.0939,-0.0926,-0.0957,-0.0961,-0.1001,-0.0947,-0.1018,-0.1021,-0.1023,-0.1101,-0.111,-0.1117,0,0,0,0,0,-0.0977,-0.0973,-0.0955,-0.0948,-0.0919,-0.094,-0.0942,-0.0936,-0.0927,-0.0954,-0.0949,-0.094,-0.0974,-0.0959,-0.0963,-0.1005,-0.1017,-0.102,-0.1023,-0.1098,-0.1108,-0.1117,0,0,0,0,0,0,-0.1001,-0.0971,-0.0952,-0.0935,-0.0948,-0.094,-0.0956,-0.0955,-0.0972,-0.0975,-0.0957,-0.0959,-0.0997,-0.099,-0.0974,-0.1032,-0.0994,-0.0998,-0.105,-0.106,-0.1068,-0.1073,-0.0948,0,0,0,0,0,-0.1,-0.1001,-0.0976,-0.0975,-0.0974,-0.097,-0.0978,-0.0984,-0.0989,-0.0997,-0.0996,-0.0998,-0.1009,-0.1025,-0.1028,-0.1069,-0.1056,-0.1096,-0.1105,-0.1112,-0.1118,-0.1127,-0.1136,-0.1033,-0.1033,-0.1033,0,0,-0.1013,-0.0997,-0.0997,-0.0984,-0.0985,-0.1007,-0.0977,-0.1008,-0.1037,-0.0999,-0.1038,-0.1028,-0.1023,-0.1059,-0.1077,-0.1062,-0.1136,-0.1115,-0.1121,-0.1123,-0.1131,-0.1141,-0.1149,-0.1035,-0.1035,-0.1034,0,0,-0.1047,-0.102,-0.103,-0.1047,-0.1057,-0.1057,-0.1074,-0.1077,-0.1088,-0.1126,-0.1096,-0.1105,-0.1134,-0.1125,-0.1128,-0.1185,-0.1172,-0.1198,-0.1254,-0.1264,-0.1272,-0.1279,-0.1283,-0.129,-0.1209,-0.1209,-0.1209,0,-0.1043,-0.106,-0.1045,-0.1067,-0.1086,-0.1085,-0.1116,-0.1134,-0.1153,-0.1162,-0.1155,-0.1173,-0.1163,-0.1195,-0.121,-0.1204,-0.1209,-0.122,-0.1275,-0.1282,-0.1288,-0.1289,-0.1296,-0.1213,-0.1213,-0.1212,-0.1212,0,-0.1098,-0.1111,-0.1128,-0.1146,-0.1171,-0.121,-0.122,-0.1247,-0.1257,-0.1264,-0.13,-0.1282,-0.129,-0.1293,-0.1272,-0.1315,-0.1303,-0.1279,-0.1252,-0.1303,-0.1302,-0.1307,-0.1219,-0.1218,-0.1217,-0.1216,0,0,-0.1062,-0.114,-0.1146,-0.1169,-0.1219,-0.1238,-0.1294,-0.1327,-0.135,-0.138,-0.1412,-0.1421,-0.1405,-0.1405,-0.1381,-0.139,-0.1429,-0.1365,-0.1363,-0.1371,-0.146,-0.1348,-0.1343,-0.1425,-0.1426,-0.1427,-0.1444,0,-0.1094,-0.116,-0.1195,-0.1264,-0.129,-0.132,-0.1366,-0.1404,-0.1426,-0.1458,-0.1462,-0.1482,-0.1454,-0.1456,-0.1468,-0.1438,-0.1447,-0.1427,-0.1406,-0.1405,-0.1301,-0.1346,-0.1431,-0.1448,-0.1449,-0.145,-0.1451,0,-0.1124,-0.1163,-0.124,-0.1306,-0.1317,-0.1366,-0.1421,-0.1462,-0.1512,-0.153,-0.1564,-0.1561,-0.159,-0.1546,-0.1555,-0.1552,-0.1516,-0.1488,-0.1488,-0.1357,-0.1303,-0.1383,-0.146,-0.1459,-0.1458,-0.1458,-0.1457,0,-0.111,-0.1186,-0.1252,-0.1283,-0.136,-0.1396,-0.1433,-0.1486,-0.1509,-0.1573,-0.1597,-0.1638,-0.1646,-0.1643,-0.1595,-0.1587,-0.1589,-0.1563,-0.143,-0.1422,-0.1481,-0.1473,-0.1558,-0.1558,-0.1558,-0.1558,-0.1558,0,-0.1124,-0.1171,-0.1253,-0.1288,-0.1339,-0.1398,-0.1449,-0.1486,-0.1547,-0.1574,-0.1629,-0.1641,-0.167,-0.1669,-0.1634,-0.1553,-0.1623,-0.1446,-0.142,-0.1516,-0.1511,-0.1485,-0.1477,-0.1558,-0.1558,-0.1558,-0.1558,0,-0.1106,-0.1175,-0.1231,-0.1314,-0.1338,-0.1371,-0.1442,-0.1471,-0.1539,-0.158,-0.1605,-0.1658,-0.1649,-0.1654,-0.1629,-0.1571,-0.1519,-0.1462,-0.1575,-0.1554,-0.134,-0.1336,-0.1333,-0.133,-0.1326,-0.1324,-0.1321,0,-0.1111,-0.1148,-0.1226,-0.1252,-0.1295,-0.135,-0.1385,-0.1457,-0.1483,-0.1563,-0.1575,-0.1598,-0.1614,-0.1511,-0.152,-0.1466,-0.1422,-0.1409,-0.1366,-0.1343,-0.1319,-0.1319,-0.1319,-0.1316,-0.1316,-0.1315,-0.1314,0,-0.1098,-0.1134,-0.1168,-0.1212,-0.1256,-0.1289,-0.1344,-0.1353,-0.1434,-0.1512,-0.1497,-0.1477,-0.1455,-0.1427,-0.1388,-0.1343,-0.1439,-0.1375,-0.1381,-0.134,-0.1322,-0.1301,-0.1305,-0.1303,-0.1304,-0.1305,-0.1306,0,-0.1077,-0.1081,-0.1123,-0.1147,-0.1198,-0.121,-0.1246,-0.1271,-0.1297,-0.1392,-0.1379,-0.14,-0.1444,-0.136,-0.133,-0.128,-0.1242,-0.1204,-0.1218,-0.1231,-0.1182,-0.1144,-0.1054,0,0,0,0,0,-0.1051,-0.1042,-0.1057,-0.1069,-0.1114,-0.1133,-0.1211,-0.1252,-0.1333,-0.129,-0.1328,-0.1299,-0.1241,-0.1249,-0.1165,-0.1261,-0.1245,-0.1159,-0.121,-0.1241,-0.1254,-0.1203,0,0,0,0,0,0,-0.1036,-0.105,-0.1026,-0.0994,-0.0986,-0.1017,-0.1059,-0.1117,-0.1095,-0.1184,-0.1152,-0.1217,-0.117,-0.1256,-0.1134,-0.1134,-0.114,-0.1174,-0.1171,-0.1234,-0.1246,-0.1256,-0.1208,0,0,0,0,0]},{"header":{"parameterUnit":"m.s-1","parameterCategory":2,"la1":30.2991,"la2":30.254,"lo1":-89.0895,"lo2":-89.0444,"dy":0.0017,"dx":0.0017,"nx":28,"ny":28,"refTime":"2023-09-25T09:00:00:Z","depth":"4","parameterNumber":3,"parameterNumberName":"V-component_of_CURRENTS"},"data":[0,0,0,0,0,0,0,0,0,0,0,0,0,0,0,0,0,0,0,0,0,0,0,0,0,0,0,0,0,0,0,0,0,0,0,0,0,0,0,0,0,0,0,0,0,0,0,0,0,0,0,0,0,0,0,0,0,0,-0.015,-0.0149,0,-0.0091,-0.009,-0.009,-0.0072,-0.0073,-0.0073,-0.0073,-0.002,-0.0018,-0.0016,0,0,0,0,0,0,0,0,0,0,0,0,0,-0.02,-0.02,-0.015,-0.0149,-0.0149,-0.0091,-0.009,-0.0089,-0.0072,-0.0073,-0.0073,-0.0073,-0.002,-0.0018,-0.0016,0,0,0,0,0,0,0,0,0,0,0,0,0,-0.0165,-0.02,-0.015,-0.0132,-0.013,-0.0091,-0.009,-0.0089,-0.0072,-0.0073,-0.0073,-0.0073,-0.0021,-0.0018,-0.0016,0.0006,0,0,-0.0008,-0.0007,0,0,0,0,0,0,0,0,-0.0167,-0.0163,-0.0136,-0.0133,-0.0131,-0.0088,-0.0088,-0.0057,-0.0072,-0.0095,-0.0073,-0.0073,-0.0042,-0.0038,-0.0027,0.0008,0.0011,-0.0008,-0.0007,-0.0006,-0.0005,0,0,0,0,0,0,0,-0.0169,-0.0165,-0.0128,-0.0135,-0.0132,-0.011,-0.0106,-0.0082,-0.0069,-0.0093,-0.0092,-0.0083,-0.0041,-0.003,-0.0026,0.0011,-0.0008,-0.0006,-0.0005,-0.0004,0.0068,0.0068,0,0,0,0,0,0,-0.0177,-0.0168,-0.013,-0.0126,-0.0149,-0.0109,-0.0105,-0.0103,-0.0069,-0.0063,-0.0083,-0.0083,-0.0034,-0.0029,-0.0024,-0.0004,-0.0006,-0.0003,-0.0002,0.0067,0.0068,0.0068,0,0,0,0,0,0,-0.0178,-0.0174,-0.0132,-0.0144,-0.0137,-0.0108,-0.0106,-0.0101,-0.0091,-0.006,-0.0056,-0.0078,-0.0034,-0.0028,-0.0006,-0.0002,-0.0002,-0.0,0.0067,0.0068,0.0068,0.004,0,0,0,0,0,0,-0.018,-0.0175,-0.0172,-0.0145,-0.0137,-0.0114,-0.0105,-0.01,-0.0085,-0.0084,-0.0055,-0.005,-0.0034,-0.001,-0.0003,0.0001,0.0002,0.0066,0.0067,0.0068,0.0041,0.004,0.0039,0,0,0,0,0,-0.0182,-0.018,-0.0172,-0.0167,-0.0135,-0.0114,-0.0108,-0.0088,-0.0085,-0.0081,-0.0062,-0.0051,-0.0,-0.0007,-0.0,0.0005,0.0066,0.0067,0.0068,0.0041,0.004,0.0039,0,0,0,0,0,0,-0.02,-0.0177,-0.0168,-0.0159,-0.0139,-0.011,-0.0103,-0.0089,-0.007,-0.007,-0.0046,-0.0039,-0.002,-0.0,-0.0009,0.003,0.0035,0.0038,0.0012,0.0012,0.0011,-0.0015,0.0004,0,0,0,0,0,-0.0202,-0.0198,-0.017,-0.0164,-0.0155,-0.0129,-0.0116,-0.0104,-0.0083,-0.0075,-0.0057,-0.0033,-0.0009,0.0005,0.0026,0.005,0.0074,0.0059,0.0059,0.0058,0.0042,0.0091,0.0093,0.0072,0.0072,0.0072,0,0,-0.0212,-0.0194,-0.0195,-0.0168,-0.0152,-0.0147,-0.0123,-0.0108,-0.0104,-0.0072,-0.0065,-0.0038,-0.0004,0.0017,0.0029,0.0034,0.0079,0.0059,0.0058,0.0042,0.0092,0.0095,0.0096,0.0072,0.0072,0.0072,0,0,-0.0226,-0.0211,-0.0211,-0.0199,-0.0172,-0.0158,-0.0155,-0.0129,-0.0116,-0.0099,-0.0075,-0.0051,-0.0015,0.0008,0.0026,0.0036,0.007,0.0051,0.003,0.0078,0.008,0.0082,0.0122,0.0128,0.0055,0.0055,0.0055,0,-0.0236,-0.0236,-0.0207,-0.0204,-0.0203,-0.0168,-0.0175,-0.0152,-0.0124,-0.0114,-0.0103,-0.0048,-0.0023,0.001,0.001,0.0032,0.0066,0.0029,0.0076,0.0079,0.0081,0.0122,0.0129,0.0053,0.0054,0.0054,0.0054,0,-0.0252,-0.0253,-0.0254,-0.0245,-0.0236,-0.0238,-0.0208,-0.0195,-0.0176,-0.0154,-0.012,-0.0077,-0.0048,-0.0026,-0.0007,0.0027,0.0048,0.0066,0.0075,0.0082,0.0124,0.0132,0.0052,0.0052,0.0053,0.0053,0,0,-0.0271,-0.0269,-0.0269,-0.028,-0.0263,-0.0261,-0.0252,-0.0233,-0.0227,-0.0185,-0.0172,-0.0123,-0.0095,-0.0074,-0.0033,0.001,0.0058,0.0042,0.0045,0.0073,0.0167,0.0151,0.0158,0.0093,0.0094,0.0095,0.0192,0,-0.0295,-0.0314,-0.0301,-0.0327,-0.0341,-0.0315,-0.0314,-0.029,-0.0259,-0.0234,-0.0173,-0.0147,-0.0111,-0.0093,-0.0044,0.0032,0.0075,0.003,0.0161,0.0165,0.0144,0.0165,0.0098,0.0198,0.0199,0.0201,0.0202,0,-0.0311,-0.0327,-0.0363,-0.038,-0.0383,-0.0392,-0.0388,-0.0378,-0.0328,-0.03,-0.0253,-0.0204,-0.014,-0.0111,0.0022,-0.0004,0.0067,0.013,0.0136,0.013,0.0162,0.019,0.0215,0.0214,0.0213,0.0212,0.0211,0,-0.0349,-0.0367,-0.0406,-0.0414,-0.0426,-0.0435,-0.0436,-0.0404,-0.0393,-0.0343,-0.0321,-0.0238,-0.0187,-0.0087,0.0037,0.0035,0.0186,0.0204,0.0258,0.0258,0.0254,0.0251,0.0287,0.0286,0.0286,0.0286,0.0286,0,-0.0382,-0.041,-0.043,-0.0456,-0.0495,-0.0482,-0.0502,-0.0485,-0.0451,-0.0432,-0.036,-0.0314,-0.0177,-0.0071,0.0032,0.0168,0.0188,0.0249,0.0281,0.0242,0.0237,0.026,0.0256,0.029,0.0289,0.0288,0.0287,0,-0.0415,-0.0431,-0.0477,-0.0507,-0.0519,-0.0546,-0.0554,-0.0554,-0.0518,-0.0486,-0.0473,-0.0359,-0.0222,-0.0083,0.0089,0.0162,0.0288,0.0329,0.0272,0.0301,0.0328,0.0321,0.0396,0.0396,0.0397,0.0397,0.0397,0,-0.0431,-0.0464,-0.0522,-0.0552,-0.057,-0.0601,-0.0617,-0.0597,-0.0582,-0.0504,-0.048,-0.0357,-0.0267,-0.0022,0.0104,0.0293,0.0315,0.0372,0.0345,0.0315,0.0339,0.0332,0.0325,0.0397,0.0397,0.0397,0.0397,0,-0.0469,-0.0495,-0.0533,-0.0602,-0.0636,-0.0663,-0.0673,-0.0669,-0.0622,-0.0587,-0.0463,-0.0341,-0.0186,-0.0015,0.0127,0.0261,0.0329,0.0374,0.0374,0.035,0.0317,0.034,0.0333,0.0398,0.0398,0.0398,0.0398,0,-0.0492,-0.0527,-0.0585,-0.0637,-0.0684,-0.0706,-0.0709,-0.0664,-0.064,-0.0536,-0.0493,-0.0324,-0.0219,-0.0031,0.0103,0.0226,0.0251,0.0282,0.0288,0.0288,0.0218,0.0158,0.0216,0,0,0,0,0,-0.0514,-0.0559,-0.0613,-0.0672,-0.0714,-0.0736,-0.0735,-0.0719,-0.0667,-0.0577,-0.0529,-0.0378,-0.0164,-0.0069,0.0054,0.0076,0.0244,0.0219,0.0275,0.0402,0.0401,0.0334,0,0,0,0,0,0,-0.0534,-0.0593,-0.0618,-0.0682,-0.0721,-0.076,-0.0757,-0.0722,-0.0653,-0.0581,-0.0458,-0.0369,-0.0158,-0.0233,0.005,0.0086,0.0133,0.0328,0.033,0.0402,0.0402,0.0401,0.0332,0,0,0,0,0]}]]